Location: Crotone
(39.0830°N, 17.1330°E)
Time: 11:42:13
(UTC+02:00)

ISS - Visible Passes

Search period start: 11 May 2021 00:00
Search period end: 21 May 2021 00:00
Orbit: 418 x 421 km, 51.6° (Epoch: 11 May)

Date Brightness Start Highest point End Pass type
(mag) Time Alt. Az. Time Alt. Az. Time Alt. Az.
11 May -0.4 02:04:21 11° NNW 02:04:39 11° N 02:05:29 10° N visible
11 May -0.5 03:41:11 10° NNW 03:42:41 12° NNE 03:44:09 10° NE visible
12 May -0.1 01:18:16 10° N 01:18:16 10° N 01:18:23 10° NNE visible
12 May -0.3 02:54:06 10° N 02:54:57 11° N 02:55:49 10° NNE visible
12 May -1.4 04:29:46 10° NNW 04:32:41 26° NNE 04:35:36 10° E visible
13 May -0.9 03:42:34 10° NNW 03:45:05 19° NNE 03:47:37 10° ENE visible
14 May -0.5 02:55:24 10° NNW 02:57:26 15° NNE 02:59:29 10° NE visible
14 May -3.3 04:31:25 10° NW 04:34:47 65° NE 04:38:08 10° ESE visible
14 May -3.4 21:13:56 10° SSW 21:17:04 39° SE 21:20:15 10° ENE visible
14 May -1.5 22:51:06 10° W 22:53:58 26° NNW 22:55:37 18° NNE visible
15 May -0.2 00:30:53 10° NNW 00:31:42 11° N 00:32:31 10° N visible
15 May -0.3 02:08:16 10° NNW 02:09:44 12° NNE 02:11:13 10° NE visible
15 May -2.3 03:44:05 10° NW 03:47:17 39° NNE 03:50:29 10° ESE visible
15 May -2.5 20:27:05 10° S 20:29:45 22° SE 20:32:27 10° ENE visible
15 May -2.3 22:03:15 10° WSW 22:06:25 38° NNW 22:09:36 10° NE visible
15 May -0.3 23:42:32 10° NW 23:43:58 12° NNW 23:45:25 10° NNE visible
16 May -0.1 01:21:10 10° N 01:22:00 11° N 01:22:51 10° NNE visible
16 May -1.5 02:56:49 10° NNW 02:59:45 26° NNE 03:02:39 10° E visible
16 May -3.3 04:33:27 10° WNW 04:36:38 38° SW 04:39:46 10° SSE visible
16 May -3.3 21:15:36 10° WSW 21:18:55 63° NW 21:22:16 10° NE visible
16 May -0.5 22:54:16 10° NW 22:56:16 15° NNW 22:58:17 10° NNE visible
17 May -1.0 02:09:36 10° NNW 02:12:08 19° NNE 02:14:40 10° ENE visible
17 May -3.9 03:45:53 10° NW 03:49:15 71° SW 03:52:35 10° SE visible
17 May -3.8 20:28:09 10° SW 20:31:29 74° SE 20:34:51 10° NE visible
17 May -0.8 22:06:07 10° WNW 22:08:37 19° NNW 22:11:06 10° NNE visible
18 May -0.4 01:22:25 10° NNW 01:22:56 12° NNW 01:22:56 12° NNW visible
18 May -1.3 21:18:08 10° W 21:21:00 26° NNW 21:23:54 10° NNE visible
18 May -0.3 22:57:58 10° NNW 22:58:44 11° N 22:59:31 10° N visible
19 May -0.4 00:35:17 10° NNW 00:36:32 12° N 00:36:32 12° N visible
19 May -2.1 20:30:17 10° WSW 20:33:27 38° NNW 20:36:37 10° NE visible
19 May -0.5 22:09:35 10° NW 22:11:00 12° NNW 22:12:26 10° NNE visible
19 May -0.4 23:48:12 10° N 23:49:03 11° N 23:49:53 10° NNE visible
20 May -0.7 21:21:19 10° NW 21:23:18 15° NNW 21:25:17 10° NNE visible
